Temperature
14 14 14 14 14 15 15 15 15 15 16 16 16 16 16 16 16 16 16 15 15 15 15 16 16 16 16 16 15 15 15 15 15 15 15 15 15 15 15 15 15 14 14
14 14 14 14 14 14 15 15 15 15 15 15 15 16 15 15 15 15 15 16 15 15 15 15 15 15 16 16 16 15 15 15 15 15 15 14 15 15 15 14 14 14 14
14 14 14 14 14 14 14 15 15 15 15 15 15 15 15 15 15 15 15 16 15 16 15 15 15 15 15 15 15 15 15 15 15 15 14 14 14 14 14 14 14 14 14
14 14 14 14 14 14 14 14 14 15 15 15 15 15 15 15 15 15 15 15 15 15 15 15 15 15 15 15 15 15 15 15 15 15 14 14 14 14 14 14 14 14 14
13 13 14 14 14 14 14 14 14 14 14 15 15 15 15 15 15 15 15 15 15 15 15 15 15 15 15 15 15 15 14 14 14 14 14 14 14 14 14 14 14 13 14
13 13 13 13 14 14 14 14 14 14 14 14 14 15 15 15 15 15 15 15 15 15 15 15 15 15 15 15 14 14 14 14 14 14 14 14 14 13 13 14 13 13 13
13 13 13 13 13 13 13 13 13 13 14 14 14 14 14 14 14 14 14 14 15 15 15 15 15 15 15 14 14 14 14 14 14 14 14 13 13 13 13 13 13 13 13
12 13 13 13 13 13 13 13 13 13 13 14 14 14 14 14 14 14 14 14 14 14 14 14 14 14 14 14 14 14 14 14 14 13 13 13 13 13 13 13 13 13 13
12 12 12 12 12 12 12 13 13 13 13 13 13 13 14 14 14 14 14 14 14 14 14 14 14 14 14 14 14 14 14 13 13 13 13 13 13 13 13 13 13 13 13
12 12 12 12 12 12 12 12 12 13 13 13 13 13 13 13 14 13 14 14 14 14 14 14 14 14 14 14 14 13 13 13 13 13 13 13 12 13 13 13 13 13 13
12 12 12 12 12 12 12 12 12 12 12 12 12 12 13 13 13 13 13 13 13 14 14 14 14 14 14 13 13 13 13 13 13 12 12 12 12 12 12 12 12 12 12
11 11 11 11 11 11 11 11 11 12 12 12 12 12 12 12 12 13 13 13 13 13 13 13 13 13 13 13 13 13 13 12 12 12 12 12 12 12 12 12 12 12 12
11 11 11 11 11 11 11 11 11 11 11 11 11 11 12 12 12 12 12 12 13 13 13 13 13 13 13 13 13 12 12 12 12 12 12 12 11 11 11 12 12 12 12
10 11 10 10 10 10 10 11 11 11 11 11 11 11 11 11 11 12 12 12 12 12 12 12 12 12 12 12 12 12 12 12 11 11 11 11 11 11 11 11 11 11 11
10 10 10 10 10 10 10 10 10 10 10 10 10 11 11 11 11 11 11 11 12 11 12 12 12 12 12 12 12 12 12 11 11 11 11 11 11 11 11 11 11 11 11
9 9 10 9 10 10 10 10 10 10 10 10 10 10 10 10 11 11 11 11 11 11 11 11 11 11 11 11 11 11 11 11 11 11 11 11 11 10 10 10 10 10 10
9 9 9 9 9 9 9 9 9 9 9 9 10 10 10 10 10 10 10 10 10 10 11 11 11 11 11 11 11 11 11 11 10 10 10 10 10 10 10 10 10 10 10
9 9 9 9 9 9 9 9 9 9 9 9 9 9 9 9 9 10 10 10 10 10 10 10 10 10 10 10 10 10 10 10 10 10 10 10 10 10 10 10 10 10 10
8 8 8 8 8 8 8 8 8 8 8 8 8 8 8 9 9 9 9 9 9 9 9 9 9 10 10 10 10 10 10 10 10 10 10 9 9 10 10 10 10 10 10
8 8 8 8 8 8 8 8 8 8 8 8 8 8 8 8 8 8 8 8 8 8 8 9 9 9 9 9 9 9 9 9 9 9 9 9 9 9 9 9 9 9 9
7 7 7 7 7 7 7 7 7 7 7 7 7 7 7 8 8 8 8 8 8 8 8 8 8 8 8 8 8 8 8 8 8 8 8 8 8 9 9 9 9 9 9
6 6 7 7 7 7 7 7 7 7 7 7 7 7 7 7 7 7 7 7 7 7 7 7 7 8 8 8 8 8 8 8 8 8 8 8 8 8 8 8 8 8 8
6 6 6 6 6 6 6 6 6 6 6 6 6 6 6 7 6 6 6 6 6 7 7 7 7 7 7 7 7 7 7 7 7 7 8 8 8 8 8 7 8 7 7
5 5 5 5 6 6 6 6 6 5 5 6 6 6 6 6 6 6 6 6 6 6 6 6 6 6 6 6 6 6 7 7 7 7 7 7 7 7 7 7 7 7 7
5 5 5 5 5 5 5 5 5 5 5 5 5 5 5 5 5 5 5 5 5 5 5 5 5 6 6 6 6 6 6 6 6 6 6 6 6 7 7 6 6 6 6
4 4 4 4 4 4 4 4 4 4 4 4 5 5 5 4 4 4 4 5 5 5 5 5 5 5 5 5 5 5 6 5 6 5 5 6 6 6 6 6 6 6 6
Wind_Speed
2 5 3 3 4 5 6 6 7 7 7 7 7 7 7 8 8 8 8 9 9 9 10 11 11 11 12 12 12 12 12 11 12 12 12 12 13 13 13 12 12 11 13
2 3 2 2 3 5 6 6 7 7 7 7 7 7 6 7 7 7 7 8 9 9 9 10 10 10 11 11 12 12 12 12 11 11 11 11 11 12 12 11 12 11 13
2 2 2 2 3 5 6 6 7 7 7 7 7 6 6 6 6 6 6 7 7 8 8 9 9 10 10 10 11 11 12 11 11 11 10 9 9 10 11 11 11 11 11
3 3 2 2 4 5 6 6 6 7 6 6 6 6 6 5 5 5 5 6 6 7 7 8 9 9 9 9 10 10 11 11 11 10 9 7 7 9 9 10 10 10 10
4 4 3 3 4 5 6 6 5 6 6 5 5 5 5 5 4 4 4 5 5 6 7 7 8 8 8 9 9 9 10 10 10 9 8 7 6 7 8 8 8 9 9
4 5 4 5 5 5 5 5 5 5 5 5 5 4 4 4 4 4 3 4 5 5 6 7 7 7 7 8 9 9 9 10 9 8 7 6 5 6 7 8 8 8 8
4 5 5 5 5 5 5 5 5 5 5 5 5 4 4 4 4 4 3 4 4 5 6 6 7 8 8 8 8 8 9 9 9 7 6 5 4 5 7 7 7 7 7
4 5 5 6 6 6 6 6 6 6 5 5 5 5 5 4 4 3 3 4 4 4 5 6 7 7 8 8 8 9 8 8 7 6 4 4 4 5 6 6 7 6 7
6 6 6 6 7 7 7 7 7 6 6 5 5 5 5 5 4 3 3 3 4 4 5 6 6 7 7 8 8 9 9 8 7 5 4 3 4 5 5 6 6 6 7
5 5 6 6 7 7 7 7 7 8 7 7 7 7 7 7 6 4 3 3 3 3 4 5 6 7 7 8 8 8 8 7 5 4 3 3 3 4 5 5 5 5 6
4 4 5 5 5 5 6 6 7 7 7 7 7 7 7 7 7 5 5 4 3 3 3 5 6 6 7 7 7 7 6 5 4 3 3 3 3 4 4 4 4 5 5
2 2 3 4 4 5 4 5 6 6 6 7 7 7 6 6 6 5 5 5 4 3 4 5 6 5 5 5 6 6 5 5 4 2 2 2 3 3 4 4 4 4 4
1 2 2 3 4 4 4 4 5 5 5 6 7 6 6 6 6 5 5 4 5 5 4 5 6 4 4 5 5 5 5 4 3 2 2 2 3 3 3 4 4 3 4
1 1 2 2 3 4 4 4 4 4 4 5 5 6 5 4 4 4 4 4 4 4 4 4 4 4 4 4 5 5 5 4 3 2 1 1 1 2 2 3 3 3 3
0 1 1 2 2 3 3 3 3 3 3 3 4 5 5 4 3 3 4 4 4 4 4 3 3 3 3 4 4 4 4 4 3 2 1 2 1 0 1 1 2 2 2
1 0 1 2 2 3 3 2 3 3 3 4 4 4 4 4 3 3 3 4 4 3 3 2 2 3 2 3 3 3 3 3 3 3 2 1 1 1 1 1 0 1 1
1 0 1 1 3 3 3 3 3 3 3 3 3 4 4 4 3 3 3 3 3 3 3 3 3 3 3 3 2 2 3 3 3 3 3 2 1 1 1 1 1 1 0
0 1 1 2 3 3 3 3 3 3 4 3 3 3 3 4 4 3 2 2 3 3 3 2 2 2 2 2 1 1 2 2 3 3 3 3 3 2 2 1 2 1 1
1 1 2 2 2 2 2 3 3 4 4 4 4 4 3 4 4 3 2 2 3 3 3 2 1 2 2 1 1 1 1 1 2 3 3 3 3 2 2 2 2 2 1
1 2 2 3 3 2 2 2 3 3 3 4 4 3 3 4 4 3 3 3 3 2 2 2 2 2 1 1 1 1 1 1 2 2 1 2 2 1 2 2 2 2 2
3 3 2 3 2 2 1 0 0 1 1 2 3 4 3 4 4 3 3 2 2 1 1 1 1 2 1 1 1 1 1 1 1 1 1 1 1 1 1 2 2 2 1
2 2 2 1 1 1 0 0 0 1 1 1 2 4 4 4 3 3 3 1 1 1 2 2 1 1 1 1 1 1 0 1 0 0 0 1 0 1 1 1 1 1 1
2 1 0 0 1 1 1 1 2 2 1 2 2 2 3 3 3 2 2 2 1 1 0 0 1 1 1 0 1 2 2 2 1 1 0 0 1 1 0 1 1 0 1
2 2 2 1 1 1 1 2 2 1 0 1 1 2 3 3 2 2 1 1 1 0 0 1 0 1 1 1 0 0 0 1 2 0 1 1 0 0 1 1 0 0 1
2 2 2 2 1 1 1 1 1 0 1 1 1 2 2 2 2 2 1 1 0 0 1 1 1 1 1 1 1 1 1 1 1 1 1 1 1 1 1 1 0 0 1
3 3 2 2 2 1 0 0 0 1 1 1 2 2 2 2 2 2 2 1 1 1 1 1 1 1 2 1 1 1 2 1 1 1 2 2 2 2 1 1 0 1 0
Wind_Direction
319 323 329 32 47 64 69 64 63 70 74 77 81 85 87 96 106 112 115 114 114 113 110 111 113 110 106 103 100 99 98 98 101 100 101 102 102 100 98 94 93 91 95
288 315 336 48 59 76 75 70 67 71 72 74 76 79 83 90 100 111 114 114 116 115 113 113 115 113 108 104 103 104 104 101 99 98 99 101 102 102 100 97 97 97 97
357 350 357 62 84 88 82 75 70 69 72 71 71 74 81 86 91 102 109 112 118 119 116 114 113 113 112 109 108 108 107 105 100 96 92 88 98 104 105 103 103 102 102
12 17 20 69 105 98 88 80 73 69 69 71 69 68 74 84 91 95 108 113 117 121 121 120 117 114 115 116 114 112 111 108 105 100 93 91 98 107 109 110 109 108 105
24 27 33 88 105 98 91 83 78 73 70 71 71 67 72 76 86 94 105 115 118 121 126 124 120 119 117 118 120 117 114 112 109 100 95 96 99 109 114 116 114 113 110
32 33 44 81 92 89 85 82 76 74 70 66 66 66 71 72 74 88 95 117 123 123 128 130 127 124 122 120 120 123 120 115 109 99 95 97 103 115 120 121 121 120 118
45 36 49 66 79 83 78 75 68 67 65 62 59 59 62 64 68 79 91 114 124 134 132 132 136 132 129 126 125 122 121 117 106 102 100 102 113 120 124 123 129 130 129
56 40 49 59 63 73 72 65 59 57 57 55 53 51 49 53 60 77 86 108 113 118 129 132 137 136 136 135 132 125 119 117 113 108 109 115 127 133 128 127 129 132 133
47 41 36 47 58 63 65 62 57 53 50 46 42 43 42 44 53 65 73 92 109 121 128 129 131 134 135 139 137 133 125 118 115 114 121 133 139 135 126 125 130 130 126
45 39 31 40 52 55 56 57 55 51 48 45 41 40 42 40 38 45 44 68 95 105 128 136 135 134 136 135 135 130 126 118 110 112 120 138 140 137 131 127 125 125 126
32 25 28 36 44 51 56 51 49 48 44 44 40 36 38 38 33 30 30 45 68 79 103 127 134 130 130 131 129 126 121 112 111 114 133 143 155 154 138 136 135 135 133
2 0 19 31 37 48 50 46 44 47 45 43 42 37 37 37 32 29 25 33 50 61 88 103 111 115 113 106 111 113 109 110 109 116 141 146 161 167 154 147 138 136 140
315 7 15 26 36 50 44 45 42 43 45 43 39 37 39 38 31 28 29 28 32 46 61 73 71 75 90 94 97 100 101 104 104 112 136 146 177 181 167 158 147 137 137
36 17 15 27 41 47 50 49 48 45 45 42 39 39 43 38 30 26 36 33 37 40 50 60 72 73 83 95 102 106 105 103 101 106 110 120 175 202 187 170 159 148 140
44 346 18 39 46 48 51 41 47 43 43 43 45 41 50 44 36 41 38 37 40 43 51 61 76 82 80 88 93 103 101 102 98 95 98 97 83 44 222 193 187 183 168
232 262 45 63 54 57 59 47 40 40 44 48 45 42 47 56 55 54 50 41 35 39 47 69 91 92 79 87 89 98 105 104 94 88 77 93 92 52 357 337 272 243 203
225 140 97 92 63 64 59 46 45 44 49 46 40 38 49 60 63 63 56 41 30 37 52 69 72 85 90 81 77 85 95 91 90 85 82 72 65 16 339 343 331 313 289
156 93 68 66 62 59 54 47 48 47 52 43 41 41 47 53 58 63 57 36 28 49 61 73 81 89 95 100 82 48 72 92 89 83 82 77 71 44 5 9 332 341 26
142 106 77 65 67 59 54 46 49 50 48 43 40 39 43 49 53 61 55 40 43 55 56 57 67 92 114 112 114 78 55 81 92 86 80 75 78 65 35 10 359 348 355
77 85 78 69 57 53 55 47 48 46 36 39 38 31 43 48 50 57 57 42 49 57 53 58 65 56 99 127 114 86 61 100 93 93 92 71 76 85 64 47 27 356 337
51 61 66 69 54 63 63 97 49 357 359 18 25 21 32 43 48 53 47 46 46 66 65 64 71 61 38 48 103 59 7 80 120 136 99 93 71 86 92 76 53 36 360
38 47 60 75 74 67 51 198 215 243 305 328 12 15 18 29 36 47 50 45 40 53 57 57 63 76 20 52 125 131 243 291 282 167 137 168 206 64 65 80 68 42 1
22 359 346 60 77 43 35 63 55 41 11 6 358 353 3 14 22 36 44 47 36 80 143 95 98 148 221 339 80 148 163 214 275 310 248 203 214 168 32 34 94 327 290
344 345 337 0 51 34 60 85 105 113 273 282 301 311 339 0 8 13 34 45 31 20 276 248 186 211 194 223 230 27 128 151 155 247 301 302 312 245 241 273 306 53 323
350 1 347 349 6 16 45 111 119 90 258 293 325 326 331 348 353 351 7 31 337 304 269 270 251 221 214 216 209 162 134 45 95 162 239 285 313 286 270 260 259 32 331
4 10 4 351 342 349 341 269 170 231 274 325 326 318 320 325 329 332 338 342 300 275 263 259 239 222 223 219 223 190 162 161 174 171 214 235 266 287 294 266 257 295 292
Height
1512 1513 1514 1515 1516 1516 1517 1517 1518 1518 1518 1519 1519 1520 1521 1521 1521 1522 1523 1523 1524 1524 1525 1525 1526 1526 1527 1527 1528 1528 1529 1529 1529 1531 1531 1532 1533 1533 1534 1534 1535 1536 1537
1511 1512 1514 1515 1515 1516 1517 1517 1518 1518 1518 1519 1519 1520 1520 1521 1522 1522 1523 1523 1524 1524 1525 1526 1526 1527 1527 1528 1528 1529 1529 1530 1531 1532 1532 1533 1534 1534 1535 1535 1536 1537 1537
1511 1512 1513 1514 1515 1516 1516 1517 1517 1518 1518 1519 1519 1519 1520 1521 1522 1522 1523 1524 1524 1525 1525 1526 1526 1527 1528 1528 1529 1530 1530 1531 1531 1532 1533 1534 1534 1535 1536 1536 1537 1537 1538
1511 1512 1513 1514 1515 1515 1516 1516 1517 1517 1518 1518 1519 1519 1520 1520 1521 1522 1523 1523 1524 1524 1525 1526 1526 1527 1527 1528 1529 1530 1531 1531 1532 1533 1533 1534 1535 1536 1536 1537 1537 1538 1539
1510 1511 1512 1513 1514 1514 1515 1516 1516 1517 1517 1517 1518 1518 1519 1520 1520 1521 1522 1522 1523 1524 1525 1525 1526 1526 1527 1528 1529 1530 1531 1531 1532 1533 1534 1535 1535 1536 1536 1537 1538 1538 1539
1510 1511 1512 1512 1513 1514 1514 1515 1515 1516 1516 1517 1517 1518 1518 1519 1519 1520 1521 1521 1522 1523 1524 1524 1525 1526 1527 1527 1528 1530 1531 1531 1532 1533 1534 1535 1535 1536 1536 1537 1538 1538 1539
1509 1510 1511 1512 1512 1513 1513 1514 1514 1515 1515 1516 1516 1517 1517 1518 1518 1519 1520 1520 1521 1522 1523 1523 1524 1525 1526 1527 1528 1529 1530 1531 1532 1533 1534 1534 1535 1536 1536 1537 1537 1538 1538
1509 1510 1510 1511 1512 1512 1513 1513 1513 1514 1514 1515 1515 1515 1516 1516 1517 1518 1519 1519 1520 1520 1521 1522 1523 1524 1525 1526 1527 1528 1529 1530 1531 1532 1533 1534 1535 1536 1536 1537 1537 1538 1538
1509 1509 1510 1510 1511 1511 1512 1512 1512 1513 1513 1513 1514 1514 1514 1515 1515 1516 1517 1518 1518 1519 1520 1521 1522 1523 1524 1525 1526 1527 1528 1529 1530 1531 1532 1533 1534 1535 1536 1536 1537 1537 1538
1508 1508 1509 1509 1510 1510 1510 1511 1511 1511 1512 1512 1512 1513 1513 1514 1514 1515 1516 1516 1517 1517 1518 1519 1520 1521 1522 1524 1525 1526 1527 1528 1529 1530 1531 1532 1534 1534 1535 1536 1536 1537 1537
1506 1507 1507 1508 1508 1509 1509 1509 1509 1510 1510 1510 1511 1511 1512 1512 1513 1513 1514 1514 1515 1516 1517 1517 1518 1519 1521 1522 1524 1525 1526 1527 1528 1529 1530 1531 1533 1533 1534 1535 1535 1536 1536
1505 1505 1506 1506 1507 1507 1507 1507 1508 1508 1508 1509 1509 1510 1510 1510 1511 1512 1512 1513 1514 1514 1515 1516 1517 1518 1520 1521 1522 1523 1524 1526 1527 1528 1529 1530 1531 1532 1533 1534 1534 1535 1535
1504 1504 1504 1505 1505 1505 1505 1506 1506 1506 1507 1507 1508 1508 1508 1509 1509 1510 1510 1511 1512 1512 1513 1514 1515 1516 1518 1519 1520 1521 1523 1524 1525 1526 1528 1529 1530 1531 1532 1532 1533 1533 1534
1502 1503 1503 1504 1504 1504 1504 1504 1504 1504 1505 1505 1506 1506 1507 1507 1507 1508 1508 1509 1509 1510 1511 1512 1513 1514 1515 1517 1518 1519 1521 1522 1523 1524 1526 1527 1528 1529 1530 1531 1531 1532 1532
1501 1501 1502 1502 1502 1502 1502 1502 1502 1502 1503 1503 1504 1504 1505 1505 1505 1505 1506 1506 1507 1508 1509 1509 1511 1512 1513 1514 1516 1517 1519 1520 1522 1522 1524 1525 1526 1527 1528 1529 1529 1530 1531
1499 1500 1500 1500 1500 1500 1500 1500 1500 1500 1501 1501 1502 1502 1502 1503 1503 1503 1503 1504 1505 1505 1506 1507 1509 1510 1511 1512 1514 1515 1517 1518 1519 1521 1522 1523 1524 1525 1526 1527 1527 1528 1529
1498 1498 1498 1498 1498 1498 1498 1498 1498 1499 1499 1499 1500 1500 1500 1501 1501 1501 1501 1502 1503 1503 1504 1505 1506 1508 1509 1510 1511 1513 1514 1515 1517 1518 1519 1520 1522 1523 1524 1525 1525 1526 1527
1496 1496 1496 1496 1496 1497 1497 1497 1497 1497 1497 1497 1497 1498 1498 1498 1498 1499 1499 1500 1500 1501 1502 1503 1504 1505 1506 1508 1509 1510 1512 1513 1514 1516 1517 1518 1519 1520 1521 1522 1523 1524 1524
1494 1494 1494 1494 1494 1495 1495 1495 1495 1495 1495 1495 1495 1495 1496 1496 1496 1497 1497 1497 1498 1499 1499 1501 1501 1503 1504 1505 1506 1508 1509 1510 1511 1513 1514 1515 1517 1518 1518 1519 1520 1521 1522
1491 1492 1492 1492 1492 1493 1493 1493 1493 1493 1493 1494 1493 1493 1494 1494 1494 1495 1495 1495 1496 1497 1497 1499 1499 1500 1501 1503 1504 1505 1506 1507 1508 1509 1511 1512 1514 1515 1515 1516 1517 1518 1518
1489 1489 1490 1490 1490 1491 1491 1490 1490 1491 1491 1491 1491 1491 1491 1492 1492 1493 1493 1493 1494 1495 1496 1496 1497 1498 1499 1500 1502 1503 1504 1505 1506 1507 1508 1509 1510 1511 1512 1513 1514 1515 1515
1487 1487 1488 1488 1488 1488 1488 1488 1489 1489 1489 1489 1489 1489 1489 1489 1490 1490 1491 1491 1492 1493 1493 1494 1495 1495 1496 1497 1499 1500 1501 1503 1502 1503 1505 1506 1507 1508 1509 1510 1511 1511 1512
1485 1486 1486 1486 1486 1486 1487 1486 1486 1487 1487 1487 1487 1487 1487 1487 1487 1488 1489 1489 1489 1490 1491 1491 1492 1493 1494 1495 1496 1497 1498 1498 1499 1500 1501 1502 1504 1505 1506 1507 1507 1508 1508
1484 1484 1484 1484 1484 1484 1484 1484 1484 1484 1484 1484 1484 1485 1485 1485 1485 1485 1486 1486 1487 1487 1488 1489 1490 1490 1491 1492 1493 1493 1495 1495 1496 1496 1498 1499 1500 1501 1502 1503 1503 1504 1505
1482 1482 1482 1482 1482 1482 1482 1483 1482 1482 1482 1482 1482 1482 1482 1482 1482 1482 1483 1483 1484 1484 1485 1486 1486 1487 1488 1489 1489 1490 1491 1492 1493 1494 1494 1495 1497 1498 1498 1499 1500 1500 1501
1480 1481 1480 1480 1480 1480 1480 1480 1480 1480 1480 1480 1479 1479 1479 1479 1479 1480 1480 1480 1480 1481 1481 1482 1483 1484 1485 1485 1486 1487 1488 1489 1489 1490 1490 1491 1493 1494 1495 1495 1496 1496 1497